QPF
0.04 0.05 0.06 0.07 0.07 0.10 0.10 0.05 0.03 0.04 0.04 0.01 0.00 0.00 0.00 0.00 0.00 0.01 0.02 0.02 0.01 0.01 0.01 0.01 0.01 0.01 0.00 0.01 0.01 0.01 0.01 0.00 0.00 0.00 0.00 0.00 0.00 0.00 0.00 0.00 0.00 0.00 0.00
0.07 0.08 0.08 0.09 0.09 0.12 0.13 0.08 0.05 0.05 0.03 0.02 0.02 0.01 0.00 0.00 0.00 0.01 0.02 0.02 0.02 0.02 0.01 0.01 0.00 0.00 0.00 0.00 0.01 0.01 0.01 0.02 0.02 0.02 0.01 0.01 0.01 0.01 0.01 0.00 0.00 0.01 0.01
0.09 0.11 0.12 0.13 0.12 0.11 0.11 0.11 0.09 0.06 0.05 0.04 0.03 0.01 0.00 0.00 0.00 0.01 0.02 0.02 0.04 0.03 0.01 0.01 0.01 0.01 0.01 0.01 0.01 0.02 0.03 0.02 0.02 0.02 0.02 0.02 0.02 0.02 0.01 0.01 0.01 0.01 0.01
0.08 0.10 0.12 0.14 0.14 0.12 0.13 0.14 0.12 0.10 0.10 0.08 0.05 0.04 0.02 0.00 0.01 0.01 0.01 0.02 0.02 0.03 0.02 0.02 0.01 0.01 0.01 0.02 0.02 0.02 0.02 0.03 0.03 0.03 0.03 0.03 0.03 0.03 0.02 0.02 0.01 0.01 0.01
0.06 0.09 0.12 0.14 0.15 0.14 0.15 0.15 0.15 0.12 0.11 0.09 0.07 0.06 0.04 0.02 0.02 0.01 0.01 0.01 0.01 0.02 0.03 0.04 0.03 0.02 0.01 0.01 0.01 0.01 0.01 0.02 0.02 0.02 0.03 0.03 0.04 0.04 0.03 0.03 0.02 0.02 0.02
0.07 0.09 0.12 0.14 0.16 0.18 0.22 0.20 0.17 0.16 0.14 0.10 0.08 0.06 0.03 0.02 0.01 0.01 0.01 0.01 0.02 0.02 0.02 0.02 0.03 0.02 0.01 0.01 0.00 0.01 0.01 0.01 0.01 0.02 0.02 0.02 0.03 0.03 0.03 0.03 0.03 0.02 0.02
0.09 0.10 0.11 0.14 0.18 0.21 0.20 0.23 0.25 0.21 0.16 0.11 0.09 0.06 0.03 0.03 0.03 0.02 0.02 0.01 0.01 0.01 0.01 0.01 0.01 0.01 0.01 0.01 0.01 0.01 0.01 0.01 0.01 0.01 0.01 0.01 0.01 0.02 0.02 0.02 0.02 0.02 0.02
0.07 0.08 0.09 0.11 0.14 0.17 0.20 0.19 0.17 0.14 0.12 0.10 0.08 0.07 0.05 0.03 0.02 0.02 0.01 0.01 0.01 0.01 0.00 0.00 0.00 0.00 0.01 0.00 0.00 0.00 0.00 0.00 0.00 0.01 0.01 0.01 0.01 0.02 0.02 0.02 0.03 0.03 0.03
0.06 0.08 0.08 0.08 0.10 0.12 0.13 0.11 0.10 0.09 0.07 0.05 0.05 0.05 0.05 0.04 0.02 0.01 0.01 0.01 0.01 0.01 0.01 0.01 0.01 0.01 0.00 0.00 0.00 0.00 0.00 0.00 0.00 0.00 0.00 0.00 0.00 0.00 0.01 0.01 0.02 0.02 0.02
0.09 0.07 0.06 0.06 0.07 0.07 0.07 0.07 0.06 0.04 0.04 0.04 0.03 0.03 0.03 0.02 0.02 0.01 0.01 0.01 0.01 0.01 0.01 0.01 0.01 0.01 0.01 0.01 0.01 0.01 0.01 0.00 0.00 0.00 0.00 0.00 0.00 0.00 0.00 0.00 0.01 0.01 0.02
0.04 0.04 0.04 0.04 0.04 0.04 0.04 0.03 0.03 0.02 0.02 0.03 0.02 0.02 0.02 0.02 0.02 0.02 0.01 0.01 0.00 0.00 0.00 0.00 0.00 0.00 0.00 0.00 0.00 0.00 0.00 0.00 0.00 0.00 0.00 0.00 0.00 0.00 0.00 0.00 0.00 0.01 0.01
0.03 0.02 0.02 0.01 0.01 0.02 0.03 0.03 0.03 0.03 0.02 0.02 0.02 0.02 0.02 0.02 0.02 0.02 0.02 0.01 0.01 0.00 0.00 0.00 0.00 0.00 0.00 0.00 0.00 0.00 0.00 0.00 0.00 0.00 0.00 0.00 0.00 0.00 0.00 0.00 0.00 0.01 0.01
0.02 0.01 0.01 0.01 0.01 0.02 0.02 0.02 0.02 0.02 0.03 0.03 0.03 0.03 0.02 0.02 0.02 0.02 0.01 0.01 0.00 0.00 0.00 0.00 0.00 0.00 0.00 0.00 0.00 0.00 0.00 0.00 0.00 0.00 0.00 0.00 0.00 0.00 0.00 0.00 0.01 0.01 0.01
0.02 0.01 0.00 0.00 0.00 0.00 0.00 0.01 0.01 0.01 0.01 0.01 0.01 0.01 0.01 0.01 0.01 0.01 0.01 0.01 0.01 0.01 0.01 0.01 0.01 0.01 0.00 0.00 0.00 0.00 0.00 0.00 0.00 0.00 0.00 0.00 0.00 0.00 0.00 0.01 0.01 0.01 0.01
0.02 0.01 0.01 0.01 0.00 0.00 0.00 0.00 0.00 0.00 0.00 0.01 0.01 0.01 0.01 0.01 0.01 0.01 0.01 0.01 0.01 0.01 0.01 0.01 0.01 0.00 0.00 0.00 0.00 0.00 0.00 0.00 0.00 0.00 0.00 0.00 0.00 0.00 0.00 0.01 0.01 0.01 0.01
0.02 0.02 0.02 0.01 0.01 0.00 0.00 0.00 0.00 0.00 0.00 0.01 0.01 0.01 0.01 0.01 0.00 0.00 0.01 0.01 0.01 0.01 0.01 0.01 0.00 0.00 0.00 0.00 0.00 0.00 0.00 0.00 0.00 0.00 0.00 0.00 0.00 0.00 0.00 0.01 0.01 0.01 0.01
0.02 0.02 0.01 0.01 0.01 0.00 0.00 0.00 0.00 0.00 0.00 0.01 0.00 0.00 0.00 0.00 0.00 0.00 0.01 0.01 0.01 0.01 0.01 0.01 0.01 0.00 0.00 0.00 0.00 0.01 0.01 0.01 0.01 0.01 0.01 0.01 0.00 0.00 0.00 0.00 0.00 0.00 0.01
0.01 0.01 0.01 0.00 0.00 0.00 0.00 0.00 0.00 0.00 0.00 0.00 0.00 0.00 0.00 0.00 0.01 0.01 0.01 0.01 0.01 0.01 0.01 0.01 0.01 0.01 0.01 0.01 0.01 0.01 0.01 0.00 0.00 0.00 0.00 0.00 0.00 0.00 0.00 0.00 0.00 0.00 0.00
0.00 0.00 0.00 0.00 0.00 0.00 0.00 0.00 0.00 0.00 0.00 0.00 0.00 0.00 0.00 0.01 0.01 0.01 0.01 0.01 0.01 0.01 0.02 0.02 0.01 0.01 0.01 0.01 0.02 0.01 0.01 0.02 0.01 0.00 0.00 0.00 0.01 0.01 0.00 0.00 0.00 0.00 0.00
0.00 0.00 0.00 0.00 0.00 0.00 0.00 0.00 0.00 0.00 0.00 0.00 0.00 0.01 0.01 0.01 0.01 0.01 0.01 0.01 0.01 0.02 0.02 0.02 0.02 0.02 0.02 0.02 0.03 0.03 0.02 0.02 0.01 0.01 0.01 0.01 0.01 0.01 0.01 0.01 0.01 0.01 0.00
0.00 0.00 0.00 0.00 0.00 0.00 0.00 0.00 0.00 0.00 0.00 0.00 0.01 0.01 0.01 0.01 0.00 0.00 0.00 0.01 0.01 0.02 0.02 0.03 0.03 0.02 0.02 0.03 0.04 0.04 0.03 0.02 0.01 0.02 0.02 0.01 0.02 0.03 0.03 0.03 0.02 0.02 0.01
0.01 0.01 0.01 0.00 0.01 0.00 0.00 0.00 0.00 0.00 0.00 0.01 0.01 0.02 0.02 0.01 0.01 0.01 0.01 0.00 0.01 0.01 0.02 0.03 0.03 0.04 0.04 0.05 0.05 0.04 0.04 0.04 0.02 0.02 0.03 0.02 0.03 0.03 0.04 0.04 0.03 0.01 0.01
0.01 0.01 0.01 0.01 0.01 0.00 0.00 0.00 0.00 0.00 0.01 0.02 0.02 0.03 0.02 0.02 0.02 0.03 0.02 0.01 0.02 0.02 0.03 0.04 0.05 0.06 0.06 0.06 0.06 0.04 0.04 0.05 0.03 0.03 0.04 0.03 0.03 0.04 0.03 0.02 0.01 0.01 0.00
0.02 0.02 0.01 0.01 0.02 0.01 0.00 0.00 0.00 0.00 0.01 0.02 0.03 0.03 0.04 0.04 0.03 0.01 0.00 0.01 0.03 0.06 0.05 0.05 0.06 0.06 0.05 0.04 0.04 0.03 0.04 0.03 0.03 0.04 0.05 0.04 0.03 0.03 0.02 0.04 0.02 0.01 0.00
0.02 0.01 0.01 0.01 0.02 0.02 0.00 0.00 0.00 0.00 0.01 0.02 0.02 0.03 0.03 0.04 0.01 0.00 0.00 0.02 0.04 0.06 0.03 0.01 0.01 0.01 0.01 0.01 0.01 0.02 0.03 0.04 0.03 0.03 0.04 0.03 0.02 0.01 0.01 0.03 0.03 0.01 0.01
0.02 0.01 0.01 0.01 0.03 0.02 0.00 0.00 0.00 0.00 0.01 0.01 0.02 0.04 0.03 0.01 0.00 0.00 0.00 0.02 0.04 0.04 0.03 0.03 0.04 0.05 0.05 0.04 0.02 0.03 0.05 0.06 0.05 0.04 0.03 0.02 0.02 0.02 0.02 0.02 0.03 0.03 0.04
MSLP
1015.26 1015.54 1015.78 1015.97 1016.15 1016.33 1016.51 1016.70 1016.86 1016.99 1017.06 1017.06 1017.01 1016.93 1016.86 1016.84 1016.92 1017.10 1017.41 1017.81 1018.27 1018.74 1019.18 1019.57 1019.87 1020.09 1020.24 1020.35 1020.44 1020.53 1020.63 1020.73 1020.85 1020.95 1021.05 1021.13 1021.19 1021.25 1021.29 1021.34 1021.39 1021.45 1021.50
1014.58 1014.88 1015.16 1015.42 1015.67 1015.92 1016.18 1016.43 1016.67 1016.86 1017.01 1017.09 1017.12 1017.12 1017.11 1017.14 1017.24 1017.43 1017.71 1018.07 1018.49 1018.91 1019.32 1019.66 1019.93 1020.13 1020.26 1020.34 1020.40 1020.45 1020.51 1020.58 1020.65 1020.73 1020.82 1020.90 1020.97 1021.04 1021.11 1021.18 1021.26 1021.33 1021.41
1014.05 1014.39 1014.71 1015.04 1015.36 1015.70 1016.03 1016.36 1016.67 1016.94 1017.16 1017.33 1017.43 1017.50 1017.55 1017.61 1017.72 1017.88 1018.12 1018.42 1018.76 1019.11 1019.45 1019.74 1019.97 1020.14 1020.25 1020.31 1020.35 1020.38 1020.40 1020.44 1020.50 1020.56 1020.64 1020.72 1020.81 1020.90 1020.99 1021.09 1021.19 1021.29 1021.39
1013.75 1014.11 1014.49 1014.88 1015.27 1015.68 1016.08 1016.47 1016.84 1017.18 1017.47 1017.70 1017.87 1017.99 1018.09 1018.17 1018.26 1018.39 1018.56 1018.78 1019.02 1019.28 1019.53 1019.76 1019.94 1020.09 1020.18 1020.24 1020.28 1020.30 1020.32 1020.35 1020.40 1020.46 1020.54 1020.63 1020.73 1020.84 1020.96 1021.08 1021.19 1021.31 1021.41
1013.70 1014.09 1014.51 1014.95 1015.40 1015.85 1016.30 1016.73 1017.14 1017.51 1017.84 1018.12 1018.34 1018.51 1018.64 1018.73 1018.80 1018.88 1018.97 1019.08 1019.22 1019.37 1019.53 1019.69 1019.83 1019.95 1020.05 1020.12 1020.17 1020.22 1020.26 1020.30 1020.36 1020.43 1020.52 1020.62 1020.74 1020.86 1020.99 1021.12 1021.24 1021.35 1021.45
1013.88 1014.30 1014.75 1015.23 1015.70 1016.18 1016.64 1017.08 1017.50 1017.88 1018.23 1018.53 1018.79 1018.99 1019.14 1019.23 1019.29 1019.31 1019.32 1019.33 1019.35 1019.39 1019.45 1019.54 1019.63 1019.74 1019.84 1019.94 1020.03 1020.12 1020.20 1020.28 1020.37 1020.46 1020.57 1020.68 1020.81 1020.93 1021.06 1021.18 1021.29 1021.38 1021.46
1014.24 1014.70 1015.17 1015.66 1016.15 1016.62 1017.06 1017.48 1017.87 1018.24 1018.58 1018.90 1019.17 1019.40 1019.57 1019.67 1019.70 1019.67 1019.61 1019.52 1019.43 1019.37 1019.33 1019.34 1019.39 1019.48 1019.59 1019.72 1019.86 1020.00 1020.13 1020.26 1020.39 1020.51 1020.64 1020.77 1020.90 1021.02 1021.14 1021.23 1021.31 1021.36 1021.39
1014.75 1015.23 1015.72 1016.21 1016.68 1017.12 1017.52 1017.89 1018.24 1018.57 1018.90 1019.21 1019.50 1019.75 1019.94 1020.05 1020.07 1020.01 1019.88 1019.70 1019.51 1019.34 1019.21 1019.14 1019.14 1019.20 1019.32 1019.48 1019.66 1019.85 1020.04 1020.22 1020.38 1020.54 1020.69 1020.83 1020.96 1021.07 1021.16 1021.22 1021.26 1021.26 1021.23
1015.35 1015.84 1016.34 1016.81 1017.25 1017.65 1017.99 1018.30 1018.60 1018.89 1019.19 1019.50 1019.80 1020.07 1020.28 1020.41 1020.43 1020.34 1020.16 1019.91 1019.63 1019.36 1019.14 1018.99 1018.92 1018.95 1019.06 1019.23 1019.43 1019.66 1019.89 1020.11 1020.31 1020.50 1020.66 1020.81 1020.93 1021.03 1021.09 1021.12 1021.11 1021.06 1020.98
1016.00 1016.50 1016.98 1017.44 1017.83 1018.17 1018.46 1018.71 1018.94 1019.19 1019.47 1019.77 1020.08 1020.38 1020.61 1020.76 1020.79 1020.69 1020.47 1020.16 1019.81 1019.45 1019.13 1018.90 1018.77 1018.74 1018.82 1018.98 1019.19 1019.43 1019.68 1019.92 1020.15 1020.35 1020.52 1020.67 1020.79 1020.87 1020.91 1020.91 1020.86 1020.77 1020.64
1016.67 1017.16 1017.63 1018.05 1018.40 1018.69 1018.91 1019.10 1019.29 1019.50 1019.75 1020.04 1020.36 1020.67 1020.93 1021.10 1021.14 1021.03 1020.79 1020.44 1020.02 1019.58 1019.19 1018.88 1018.67 1018.59 1018.62 1018.75 1018.94 1019.17 1019.41 1019.66 1019.88 1020.08 1020.26 1020.40 1020.51 1020.58 1020.61 1020.58 1020.51 1020.39 1020.23
1017.33 1017.80 1018.24 1018.62 1018.93 1019.17 1019.34 1019.49 1019.63 1019.80 1020.02 1020.30 1020.62 1020.94 1021.21 1021.39 1021.44 1021.33 1021.07 1020.69 1020.22 1019.74 1019.28 1018.90 1018.64 1018.50 1018.47 1018.55 1018.70 1018.90 1019.11 1019.33 1019.53 1019.71 1019.87 1020.00 1020.09 1020.15 1020.17 1020.14 1020.05 1019.92 1019.75
1017.96 1018.40 1018.81 1019.15 1019.42 1019.61 1019.75 1019.85 1019.95 1020.08 1020.28 1020.53 1020.83 1021.14 1021.41 1021.59 1021.64 1021.53 1021.26 1020.87 1020.39 1019.87 1019.38 1018.96 1018.65 1018.45 1018.37 1018.39 1018.49 1018.63 1018.80 1018.97 1019.13 1019.27 1019.39 1019.49 1019.56 1019.60 1019.61 1019.57 1019.48 1019.35 1019.19
1018.54 1018.95 1019.32 1019.62 1019.86 1020.02 1020.12 1020.19 1020.25 1020.35 1020.50 1020.72 1020.98 1021.26 1021.50 1021.66 1021.70 1021.59 1021.34 1020.95 1020.48 1019.97 1019.47 1019.03 1018.69 1018.46 1018.33 1018.30 1018.33 1018.41 1018.51 1018.61 1018.71 1018.79 1018.86 1018.91 1018.94 1018.95 1018.93 1018.88 1018.80 1018.68 1018.54
1019.08 1019.44 1019.78 1020.05 1020.27 1020.41 1020.48 1020.52 1020.55 1020.60 1020.70 1020.86 1021.07 1021.29 1021.49 1021.62 1021.64 1021.53 1021.29 1020.93 1020.49 1020.01 1019.54 1019.11 1018.77 1018.52 1018.36 1018.27 1018.25 1018.25 1018.28 1018.30 1018.31 1018.31 1018.30 1018.28 1018.25 1018.21 1018.16 1018.09 1018.01 1017.90 1017.78
1019.56 1019.89 1020.19 1020.46 1020.65 1020.78 1020.84 1020.85 1020.84 1020.85 1020.89 1020.98 1021.11 1021.26 1021.40 1021.49 1021.49 1021.39 1021.17 1020.85 1020.46 1020.03 1019.61 1019.22 1018.89 1018.63 1018.45 1018.32 1018.23 1018.16 1018.10 1018.03 1017.94 1017.85 1017.74 1017.63 1017.53 1017.42 1017.31 1017.21 1017.11 1017.01 1016.90
1020.01 1020.31 1020.60 1020.85 1021.04 1021.16 1021.21 1021.20 1021.16 1021.12 1021.09 1021.11 1021.16 1021.23 1021.30 1021.34 1021.31 1021.21 1021.02 1020.75 1020.42 1020.06 1019.70 1019.35 1019.05 1018.80 1018.59 1018.41 1018.26 1018.11 1017.96 1017.79 1017.60 1017.40 1017.20 1016.99 1016.79 1016.60 1016.42 1016.27 1016.14 1016.02 1015.93
1020.43 1020.72 1021.00 1021.25 1021.45 1021.57 1021.61 1021.59 1021.52 1021.43 1021.34 1021.27 1021.24 1021.22 1021.22 1021.21 1021.17 1021.07 1020.91 1020.69 1020.42 1020.12 1019.81 1019.51 1019.23 1018.97 1018.73 1018.51 1018.29 1018.06 1017.82 1017.55 1017.27 1016.97 1016.66 1016.35 1016.05 1015.78 1015.53 1015.31 1015.14 1015.00 1014.90
1020.85 1021.12 1021.41 1021.67 1021.87 1022.00 1022.04 1022.01 1021.91 1021.77 1021.62 1021.48 1021.37 1021.29 1021.22 1021.16 1021.09 1020.99 1020.85 1020.67 1020.46 1020.21 1019.94 1019.66 1019.39 1019.11 1018.84 1018.56 1018.27 1017.96 1017.63 1017.28 1016.90 1016.52 1016.12 1015.73 1015.36 1015.00 1014.68 1014.40 1014.17 1014.00 1013.88
1021.26 1021.53 1021.81 1022.08 1022.29 1022.42 1022.46 1022.42 1022.29 1022.12 1021.92 1021.73 1021.55 1021.41 1021.29 1021.19 1021.09 1020.99 1020.86 1020.70 1020.52 1020.29 1020.04 1019.77 1019.48 1019.17 1018.84 1018.50 1018.14 1017.75 1017.35 1016.93 1016.49 1016.04 1015.59 1015.15 1014.72 1014.31 1013.93 1013.59 1013.31 1013.09 1012.93
1021.65 1021.91 1022.20 1022.46 1022.68 1022.81 1022.84 1022.78 1022.64 1022.44 1022.21 1021.97 1021.75 1021.56 1021.39 1021.26 1021.14 1021.02 1020.89 1020.74 1020.55 1020.33 1020.08 1019.78 1019.45 1019.09 1018.71 1018.30 1017.87 1017.43 1016.97 1016.50 1016.03 1015.56 1015.09 1014.62 1014.17 1013.73 1013.31 1012.93 1012.60 1012.32 1012.12
1022.00 1022.26 1022.54 1022.79 1022.99 1023.11 1023.13 1023.06 1022.91 1022.69 1022.44 1022.18 1021.92 1021.70 1021.50 1021.33 1021.18 1021.04 1020.89 1020.72 1020.52 1020.28 1019.99 1019.66 1019.28 1018.87 1018.42 1017.96 1017.48 1016.99 1016.50 1016.02 1015.55 1015.08 1014.63 1014.18 1013.73 1013.29 1012.86 1012.46 1012.08 1011.74 1011.47
1022.31 1022.55 1022.80 1023.03 1023.21 1023.30 1023.31 1023.23 1023.07 1022.85 1022.59 1022.31 1022.04 1021.79 1021.56 1021.36 1021.18 1021.00 1020.82 1020.61 1020.38 1020.09 1019.77 1019.39 1018.97 1018.51 1018.02 1017.51 1017.00 1016.49 1016.00 1015.53 1015.09 1014.66 1014.25 1013.84 1013.43 1013.02 1012.60 1012.17 1011.75 1011.36 1011.01
1022.56 1022.77 1022.99 1023.18 1023.32 1023.39 1023.38 1023.29 1023.13 1022.91 1022.65 1022.37 1022.09 1021.82 1021.57 1021.33 1021.11 1020.88 1020.65 1020.40 1020.11 1019.79 1019.42 1019.01 1018.55 1018.06 1017.54 1017.02 1016.50 1016.00 1015.53 1015.10 1014.70 1014.34 1013.98 1013.64 1013.28 1012.90 1012.49 1012.06 1011.61 1011.15 1010.71
1022.75 1022.93 1023.10 1023.25 1023.35 1023.39 1023.37 1023.27 1023.12 1022.91 1022.66 1022.39 1022.10 1021.82 1021.53 1021.25 1020.97 1020.69 1020.40 1020.09 1019.76 1019.39 1018.99 1018.55 1018.08 1017.58 1017.07 1016.56 1016.07 1015.60 1015.17 1014.79 1014.45 1014.14 1013.85 1013.57 1013.26 1012.92 1012.53 1012.08 1011.59 1011.07 1010.55
1022.90 1023.04 1023.16 1023.27 1023.34 1023.36 1023.33 1023.24 1023.09 1022.90 1022.67 1022.40 1022.11 1021.80 1021.48 1021.15 1020.81 1020.46 1020.11 1019.74 1019.35 1018.95 1018.53 1018.09 1017.63 1017.16 1016.68 1016.21 1015.76 1015.34 1014.96 1014.63 1014.34 1014.09 1013.85 1013.61 1013.34 1013.02 1012.64 1012.19 1011.66 1011.09 1010.49
Thickness
5744 5741 5738 5734 5731 5727 5724 5721 5721 5721 5720 5720 5720 5719 5718 5716 5713 5710 5708 5706 5703 5701 5700 5698 5695 5693 5692 5690 5689 5687 5686 5685 5683 5682 5680 5679 5678 5677 5676 5675 5674 5673 5673
5744 5740 5736 5732 5728 5724 5720 5718 5716 5715 5714 5713 5712 5712 5711 5710 5707 5704 5701 5699 5696 5695 5693 5691 5689 5687 5686 5684 5682 5681 5680 5678 5677 5675 5674 5672 5671 5670 5669 5668 5667 5666 5665
5742 5738 5733 5728 5724 5720 5716 5714 5711 5709 5707 5706 5704 5704 5704 5703 5701 5697 5693 5691 5689 5687 5686 5684 5681 5680 5678 5677 5675 5674 5672 5671 5669 5668 5666 5664 5663 5661 5660 5659 5659 5658 5657
5740 5734 5728 5722 5718 5714 5710 5706 5702 5700 5697 5696 5695 5695 5695 5694 5693 5691 5687 5684 5683 5681 5678 5676 5674 5672 5670 5668 5666 5665 5663 5661 5660 5658 5656 5655 5653 5652 5651 5650 5649 5648 5648
5735 5730 5724 5719 5713 5709 5704 5699 5694 5691 5688 5687 5686 5685 5685 5685 5684 5683 5680 5677 5675 5674 5671 5670 5667 5664 5661 5658 5657 5655 5653 5651 5649 5647 5645 5643 5642 5640 5639 5638 5638 5637 5637
5730 5725 5719 5714 5709 5704 5698 5692 5688 5684 5680 5678 5677 5676 5676 5677 5675 5675 5673 5671 5668 5666 5663 5661 5659 5655 5652 5649 5647 5645 5642 5640 5637 5634 5632 5630 5628 5627 5626 5625 5625 5625 5625
5724 5719 5714 5708 5704 5699 5693 5688 5683 5678 5674 5671 5667 5665 5667 5669 5667 5666 5665 5663 5661 5659 5655 5652 5650 5647 5643 5639 5637 5634 5631 5628 5624 5621 5619 5616 5614 5613 5612 5611 5611 5611 5611
5717 5713 5709 5704 5699 5694 5688 5683 5678 5672 5667 5664 5660 5657 5656 5657 5659 5661 5658 5655 5653 5650 5647 5644 5641 5638 5634 5630 5627 5623 5619 5615 5611 5608 5605 5602 5599 5598 5596 5596 5596 5596 5596
5709 5706 5702 5698 5693 5688 5682 5677 5672 5667 5661 5657 5655 5651 5646 5645 5647 5648 5647 5645 5643 5640 5637 5634 5631 5627 5623 5619 5615 5612 5607 5603 5598 5594 5590 5587 5584 5582 5580 5580 5580 5580 5581
5701 5697 5692 5688 5684 5680 5675 5670 5665 5661 5656 5650 5646 5642 5639 5635 5631 5631 5633 5633 5632 5629 5626 5623 5620 5616 5612 5607 5603 5599 5595 5590 5585 5580 5575 5571 5568 5566 5564 5564 5564 5564 5565
5689 5685 5680 5676 5672 5668 5664 5659 5655 5651 5646 5641 5636 5631 5627 5624 5621 5617 5616 5618 5617 5616 5614 5611 5607 5603 5599 5594 5590 5586 5581 5576 5571 5565 5560 5556 5552 5550 5549 5548 5548 5548 5549
5675 5671 5666 5663 5659 5656 5651 5647 5643 5639 5634 5629 5625 5621 5616 5612 5608 5605 5602 5601 5601 5602 5600 5597 5594 5590 5586 5581 5576 5571 5566 5560 5555 5550 5545 5541 5537 5535 5533 5532 5531 5532 5533
5662 5657 5654 5650 5646 5642 5638 5633 5630 5625 5621 5616 5612 5607 5603 5598 5595 5592 5588 5587 5586 5586 5585 5583 5580 5576 5572 5566 5561 5554 5549 5544 5539 5535 5530 5526 5523 5520 5518 5516 5516 5516 5517
5649 5644 5640 5636 5632 5628 5624 5620 5616 5611 5606 5602 5598 5593 5589 5585 5582 5578 5574 5571 5570 5570 5568 5565 5563 5559 5554 5549 5543 5537 5532 5527 5523 5519 5516 5512 5508 5506 5503 5502 5501 5500 5500
5635 5630 5626 5622 5617 5613 5609 5605 5601 5596 5591 5587 5583 5579 5574 5570 5567 5564 5560 5556 5552 5551 5550 5548 5544 5541 5537 5532 5526 5521 5517 5513 5509 5505 5502 5499 5496 5493 5490 5488 5487 5486 5486
5621 5616 5611 5606 5601 5597 5593 5590 5586 5581 5576 5572 5567 5564 5559 5555 5551 5547 5544 5541 5538 5535 5534 5532 5528 5524 5520 5515 5511 5507 5503 5500 5497 5494 5491 5488 5485 5482 5479 5477 5475 5475 5474
5605 5601 5595 5590 5586 5581 5577 5572 5568 5564 5559 5555 5550 5547 5543 5539 5535 5531 5528 5525 5522 5519 5517 5516 5512 5509 5505 5501 5498 5494 5491 5489 5486 5484 5481 5478 5475 5473 5471 5469 5467 5466 5465
5589 5584 5579 5574 5570 5565 5560 5555 5550 5546 5542 5538 5534 5530 5527 5523 5519 5515 5512 5509 5506 5503 5500 5499 5496 5493 5490 5487 5485 5483 5480 5478 5476 5474 5473 5471 5469 5466 5464 5463 5461 5459 5458
5572 5567 5562 5556 5551 5547 5542 5537 5532 5529 5525 5522 5518 5515 5511 5508 5504 5501 5496 5494 5491 5489 5486 5483 5482 5480 5478 5476 5474 5472 5470 5468 5466 5466 5465 5465 5463 5461 5459 5458 5456 5454 5453
5553 5549 5544 5539 5534 5529 5523 5517 5514 5511 5508 5506 5503 5500 5497 5494 5490 5487 5483 5481 5478 5475 5473 5471 5470 5469 5468 5466 5464 5462 5461 5460 5458 5458 5457 5456 5456 5455 5454 5453 5451 5450 5448
5536 5531 5526 5522 5516 5510 5503 5497 5494 5493 5490 5489 5488 5486 5484 5481 5478 5473 5470 5467 5463 5461 5460 5459 5459 5459 5458 5457 5454 5453 5452 5452 5452 5451 5450 5450 5449 5449 5448 5447 5447 5445 5444
5519 5514 5509 5504 5499 5492 5484 5479 5476 5474 5474 5474 5473 5472 5470 5469 5466 5462 5458 5455 5452 5450 5449 5448 5448 5448 5449 5448 5447 5446 5444 5444 5446 5446 5444 5444 5443 5442 5442 5442 5441 5440 5438
5502 5497 5493 5488 5481 5473 5467 5464 5461 5459 5460 5460 5459 5458 5457 5456 5452 5449 5447 5445 5445 5444 5442 5441 5441 5442 5443 5443 5441 5441 5440 5438 5438 5439 5438 5438 5438 5436 5436 5436 5435 5434 5432
5487 5482 5478 5473 5466 5458 5452 5449 5447 5447 5448 5447 5446 5445 5443 5441 5437 5434 5434 5435 5437 5438 5438 5439 5439 5439 5440 5439 5437 5437 5436 5436 5436 5435 5434 5432 5432 5430 5431 5431 5430 5428 5427
5473 5469 5463 5458 5452 5445 5439 5435 5432 5434 5435 5434 5433 5433 5431 5429 5424 5423 5424 5427 5430 5432 5434 5436 5437 5437 5438 5438 5436 5434 5433 5432 5432 5431 5429 5426 5426 5425 5426 5426 5425 5423 5422
5459 5455 5450 5445 5439 5433 5426 5422 5419 5421 5421 5421 5421 5421 5420 5418 5417 5416 5417 5420 5423 5427 5429 5432 5435 5437 5438 5438 5436 5433 5432 5429 5428 5427 5426 5421 5420 5418 5420 5421 5420 5419 5418